Daisinmaru No.11 — JK5352 — position and weather

sailwx.info

Track history (hours):
 
Tides and Currents Weather Stations Pressure Air Temp Water Temp Dewpoint Dewpoint Depression Visibility Wind Speed Wind Dir Waves Ship Positions

Daisinmaru No.11

Last reported at 2014-Oct-25 02:32 UTC. Time now 2014-Oct-25 07:15 UTC.
Position N 35°31' E 139°52'.

Length 52 m; draft 5.2 m.

Type: Cargo ship. MMSI: 431000667.

Date/timePositionNaut miles runAvg speedWind from/ knotsBaromVisibWave heightAir tempDewpointWater temp
2014-Oct-25 02:32N 35°31' E 139°52'7 7.5
2014-Oct-25 01:33N 35°29' E 139°43'0 0.0
2014-Oct-25 00:34N 35°29' E 139°43'0 0.0
2014-Oct-24 23:33N 35°29' E 139°43'4 3.9
2014-Oct-24 22:33N 35°30' E 139°47'10 9.7
2014-Oct-24 21:32N 35°33' E 139°59'8 0.2
2014-Oct-23 02:17N 35°30' E 139°50'6 8.6
2014-Oct-23 01:33N 35°29' E 139°43'0 0.1
2014-Oct-23 00:34N 35°29' E 139°43'0 0.0
2014-Oct-22 23:34N 35°29' E 139°43'0 0.0
2014-Oct-22 22:34N 35°29' E 139°43'3 3.4
2014-Oct-22 21:34N 35°30' E 139°47'4 0.2
2014-Oct-22 03:26N 35°28' E 139°51'7 7.7
2014-Oct-22 02:33N 35°27' E 139°43'4 3.8
2014-Oct-22 01:33N 35°28' E 139°39'0 0.0
2014-Oct-22 00:33N 35°28' E 139°39'0 0.0
2014-Oct-21 23:33N 35°28' E 139°39'0 0.0
2014-Oct-21 01:18N 35°28' E 139°39'0 0.0
2014-Oct-21 00:33N 35°28' E 139°39'0 0.0
2014-Oct-20 23:33N 35°28' E 139°39'2 1.8
2014-Oct-20 22:34N 35°27' E 139°41'10 9.7
2014-Oct-20 21:33N 35°30' E 139°52'6 0.4
2014-Oct-20 06:20N 35°29' E 139°59'13 2.7
2014-Oct-20 01:33N 35°30' E 139°44'1 1.0
2014-Oct-20 00:33N 35°29' E 139°43'0 0.0
2014-Oct-19 23:34N 35°29' E 139°43'0 0.4
2014-Oct-19 22:33N 35°29' E 139°43'9 9.2
2014-Oct-19 21:34N 35°29' E 139°54'  
2014-Oct-16 22:34N 35°34' E 139°48'12 9.3
2014-Oct-16 21:20N 35°27' E 139°60'12 0.7
2014-Oct-16 03:33N 35°30' E 139°45'2 2.1
2014-Oct-16 02:33N 35°29' E 139°43'0 0.0
2014-Oct-16 01:33N 35°29' E 139°43'3 2.9
2014-Oct-16 00:33N 35°31' E 139°46'  
Track history (hours):
 
Tides and Currents Weather Stations Pressure Air Temp Water Temp Dewpoint Dewpoint Depression Visibility Wind Speed Wind Dir Waves Ship Positions

Daisinmaru No.11

Last reported at 2014-Oct-25 02:32 UTC. Time now 2014-Oct-25 07:15 UTC.
Position N 35°31' E 139°52'.

Length 52 m; draft 5.2 m.

Type: Cargo ship. MMSI: 431000667.

Date/timePositionNaut miles runAvg speedWind from/ knotsBaromVisibWave heightAir tempDewpointWater temp
2014-Oct-25 02:32N 35°31' E 139°52'7 7.5
2014-Oct-25 01:33N 35°29' E 139°43'0 0.0
2014-Oct-25 00:34N 35°29' E 139°43'0 0.0
2014-Oct-24 23:33N 35°29' E 139°43'4 3.9
2014-Oct-24 22:33N 35°30' E 139°47'10 9.7
2014-Oct-24 21:32N 35°33' E 139°59'8 0.2
2014-Oct-23 02:17N 35°30' E 139°50'6 8.6
2014-Oct-23 01:33N 35°29' E 139°43'0 0.1
2014-Oct-23 00:34N 35°29' E 139°43'0 0.0
2014-Oct-22 23:34N 35°29' E 139°43'0 0.0
2014-Oct-22 22:34N 35°29' E 139°43'3 3.4
2014-Oct-22 21:34N 35°30' E 139°47'4 0.2
2014-Oct-22 03:26N 35°28' E 139°51'7 7.7
2014-Oct-22 02:33N 35°27' E 139°43'4 3.8
2014-Oct-22 01:33N 35°28' E 139°39'0 0.0
2014-Oct-22 00:33N 35°28' E 139°39'0 0.0
2014-Oct-21 23:33N 35°28' E 139°39'0 0.0
2014-Oct-21 01:18N 35°28' E 139°39'0 0.0
2014-Oct-21 00:33N 35°28' E 139°39'0 0.0
2014-Oct-20 23:33N 35°28' E 139°39'2 1.8
2014-Oct-20 22:34N 35°27' E 139°41'10 9.7
2014-Oct-20 21:33N 35°30' E 139°52'6 0.4
2014-Oct-20 06:20N 35°29' E 139°59'13 2.7
2014-Oct-20 01:33N 35°30' E 139°44'1 1.0
2014-Oct-20 00:33N 35°29' E 139°43'0 0.0
2014-Oct-19 23:34N 35°29' E 139°43'0 0.4
2014-Oct-19 22:33N 35°29' E 139°43'9 9.2
2014-Oct-19 21:34N 35°29' E 139°54'  
2014-Oct-16 22:34N 35°34' E 139°48'12 9.3
2014-Oct-16 21:20N 35°27' E 139°60'12 0.7
2014-Oct-16 03:33N 35°30' E 139°45'2 2.1
2014-Oct-16 02:33N 35°29' E 139°43'0 0.0
2014-Oct-16 01:33N 35°29' E 139°43'3 2.9
2014-Oct-16 00:33N 35°31' E 139°46'  

Dump ship's entire track history